Weather History for Evergreen, AL

Change the Weather History Date:

Thursday, February 7, 2013

  Actual Average (KPRN) Record (KPRN)
Temperature  
Mean Temperature 63 °F -  
Max Temperature 72 °F 58 °F 82 °F (1957)
Min Temperature 54 °F 35 °F 12 °F (1988)
Degree Days  
Heating Degree Days 2    
Growing Degree Days 13 (Base 50)    
Moisture  
Dew Point 56 °F    
Average Humidity 87    
Maximum Humidity 94    
Minimum Humidity 57    
Precipitation  
Precipitation 0.97 in - - ()
Sea Level Pressure  
Sea Level Pressure 29.94 in    
Wind  
Wind Speed 4 mph (North)    
Max Wind Speed 13 mph    
Max Gust Speed 22 mph    
Visibility 7 miles    
Events Rain    
Averages and records for this station are not official NWS values.
T = Trace of Precipitation, MM = Missing Value Source: NWS Daily Summary

Daily Weather History Graph

Daily Weather History Graph

Search for Another Location

Airport:

Trip Planner

Search our weather history database for the weather conditions in past years. The results will help you decide how hot, cold, wet, or windy it might be!

Date:

Astronomy

Feb. 07, 2013 Rise Set
Actual Time 6:36 AM CST 5:28 PM CST
Civil Twilight 6:11 AM CST 5:53 PM CST
Nautical Twilight 5:42 AM CST 6:22 PM CST
Astronomical Twilight 5:13 AM CST 6:51 PM CST
Moon 4:09 AM CST (2/7) 2:57 PM CST (2/7)
Length of Visible Light 11h 42m
Length of Day
10h 52m
Waning Crescent, 9% of the Moon is Illuminated
Feb 7
Waning Crescent
Feb 10
New
Feb 17
First Quarter
Feb 25
Full
Mar 4
Last Quarter

Hourly Weather History & Observations

Time (CST) Temp. Dew Point Humidity Pressure Visibility Wind Dir Wind Speed Gust Speed Precip Events Conditions
12:53 AM 54.0 °F 52.0 °F 93% 30.08 in 8.0 mi Calm Calm - 0.01 in   Overcast
1:53 AM 54.0 °F 52.0 °F 93% 30.05 in 7.0 mi Calm Calm - N/A   Overcast
2:53 AM 55.9 °F 53.1 °F 90% 30.01 in 8.0 mi North 3.5 mph - 0.00 in Rain Light Rain
3:53 AM 57.0 °F 54.0 °F 89% 30.01 in 6.0 mi Calm Calm - 0.02 in Rain Light Rain
4:32 AM 57.2 °F 53.6 °F 88% 29.99 in 5.0 mi NNE 3.5 mph - 0.02 in Rain Rain
4:53 AM 57.0 °F 54.0 °F 89% 29.97 in 5.0 mi NNE 6.9 mph - 0.04 in Rain Rain
5:24 AM 57.2 °F 55.4 °F 94% 29.96 in 7.0 mi ENE 8.1 mph - 0.01 in Rain Light Rain
5:53 AM 57.9 °F 55.9 °F 93% 29.96 in 6.0 mi Variable 3.5 mph - 0.04 in Rain Rain
6:28 AM 57.2 °F 55.4 °F 94% 29.95 in 6.0 mi NE 4.6 mph - 0.01 in Rain Light Rain
6:53 AM 57.9 °F 55.9 °F 93% 29.94 in 5.0 mi ENE 5.8 mph - 0.02 in Rain Rain
7:32 AM 57.2 °F 55.4 °F 94% 29.95 in 2.5 mi North 4.6 mph - 0.16 in Rain Heavy Rain
7:39 AM 57.2 °F 55.4 °F 94% 29.95 in 3.0 mi NNW 8.1 mph - 0.19 in Rain Heavy Rain
7:53 AM 57.9 °F 55.9 °F 93% 29.95 in 2.0 mi NNW 8.1 mph - 0.25 in Rain Heavy Rain
8:00 AM 57.2 °F 55.4 °F 94% 29.95 in 3.0 mi North 8.1 mph - 0.02 in Rain Rain
8:13 AM 57.2 °F 55.4 °F 94% 29.96 in 2.5 mi NNW 5.8 mph - 0.06 in Rain Heavy Rain
8:39 AM 59.0 °F 55.4 °F 88% 29.94 in 2.5 mi North 8.1 mph - 0.20 in Rain Heavy Rain
8:53 AM 59.0 °F 57.0 °F 93% 29.95 in 2.0 mi North 5.8 mph - 0.26 in Rain Heavy Rain
9:01 AM 59.0 °F 57.2 °F 94% 29.95 in 1.5 mi North 4.6 mph - 0.06 in Rain Heavy Rain
9:33 AM 59.0 °F 57.2 °F 94% 29.94 in 2.0 mi NNE 9.2 mph - 0.26 in Rain Heavy Rain
9:53 AM 59.0 °F 57.0 °F 93% 29.95 in 4.0 mi NNE 5.8 mph - 0.31 in Rain Rain
10:05 AM 60.8 °F 57.2 °F 88% 29.96 in 7.0 mi NNE 6.9 mph - 0.01 in Rain Light Rain
10:25 AM 60.8 °F 57.2 °F 88% 29.94 in 7.0 mi NNE 5.8 mph - 0.02 in Rain Light Rain
10:46 AM 60.8 °F 57.2 °F 88% 29.90 in 8.0 mi ENE 12.7 mph - 0.02 in Rain Light Rain
10:53 AM 61.0 °F 57.9 °F 90% 29.89 in 10.0 mi East 12.7 mph 21.9 mph 0.02 in Rain Light Rain
11:53 AM 64.0 °F 59.0 °F 84% 29.86 in 10.0 mi East 8.1 mph - 0.00 in   Overcast
12:53 PM 69.1 °F 59.0 °F 70% 29.85 in 10.0 mi Variable 6.9 mph - N/A   Partly Cloudy
1:53 PM 72.0 °F 55.9 °F 57% 29.86 in 10.0 mi Calm Calm - N/A   Clear
2:53 PM 72.0 °F 55.9 °F 57% 29.85 in 10.0 mi NNW 5.8 mph - N/A   Mostly Cloudy
3:53 PM 70.0 °F 59.0 °F 68% 29.87 in 10.0 mi North 10.4 mph - N/A   Overcast
4:53 PM 66.0 °F 57.9 °F 75% 29.88 in 10.0 mi NNW 6.9 mph - N/A   Overcast
5:45 PM 64.4 °F 57.2 °F 77% 29.90 in 10.0 mi NNW 4.6 mph - N/A   Overcast
5:53 PM 64.0 °F 57.0 °F 78% 29.90 in 10.0 mi NNW 3.5 mph - N/A   Overcast
6:53 PM 63.0 °F 57.0 °F 81% 29.91 in 10.0 mi NNW 3.5 mph - N/A   Overcast
7:30 PM 62.6 °F 57.2 °F 82% 29.93 in 10.0 mi Calm Calm - N/A   Overcast
7:42 PM 62.6 °F 57.2 °F 82% 29.93 in 10.0 mi Calm Calm - N/A   Overcast
7:53 PM 62.1 °F 57.0 °F 84% 29.94 in 10.0 mi Calm Calm - N/A   Overcast
8:49 PM 60.8 °F 57.2 °F 88% 29.95 in 10.0 mi Calm Calm - N/A   Overcast
8:53 PM 61.0 °F 57.0 °F 87% 29.94 in 10.0 mi Calm Calm - N/A   Overcast
9:41 PM 60.8 °F 57.2 °F 88% 29.96 in 10.0 mi Calm Calm - N/A   Overcast
9:53 PM 60.1 °F 57.0 °F 90% 29.95 in 10.0 mi Calm Calm - N/A   Overcast
10:16 PM 59.0 °F 55.4 °F 88% 29.95 in 10.0 mi Calm Calm - N/A   Scattered Clouds
10:40 PM 57.2 °F 55.4 °F 94% 29.96 in 10.0 mi Calm Calm - N/A   Scattered Clouds
10:53 PM 57.0 °F 55.0 °F 93% 29.96 in 9.0 mi NNW 3.5 mph - N/A   Mostly Cloudy
11:16 PM 57.2 °F 55.4 °F 94% 29.96 in 10.0 mi NNW 3.5 mph - N/A   Scattered Clouds
11:28 PM 57.2 °F 55.4 °F 94% 29.96 in 9.0 mi Calm Calm - N/A   Mostly Cloudy
11:53 PM 59.0 °F 55.0 °F 87% 29.95 in 10.0 mi Calm Calm - N/A   Overcast